Location: Long Sault Conservation Area
(44.0496°N, 78.7419°W)
Time: 15:24:18
(UTC-05:00)

Daily predictions for brighter satellites

Satellite Brightness Start Highest point End
(mag) Time Altitude Azimuth Time Altitude Azimuth Time Altitude Azimuth
Cosmos 1125 Rocket 3.5 17:33:29 10° NNW 17:38:42 73° ENE 17:43:52 10° SSE
Cosmos 1515 Rocket 3.6 17:36:12 10° N 17:40:41 79° E 17:45:07 10° SSE
Cosmos 44 3.6 17:35:31 10° SSW 17:40:42 63° ESE 17:45:40 10° NE
COSMOS 2441 4.5 17:37:03 10° SSE 17:41:47 55° ENE 17:46:31 10° N
SL-14 R/B 3.7 17:40:42 10° SSE 17:44:25 41° E 17:48:12 10° NNE
Cosmos 841 Rocket 4.0 17:39:48 10° SSW 17:45:02 66° WNW 17:50:18 10° NNE
Cosmos 1340 Rocket 3.8 17:42:31 10° SSE 17:45:46 25° E 17:49:01 10° NE
Cosmos 2297 4.1 17:41:52 10° NNW 17:47:15 40° ENE 17:52:37 10° SE
Cosmos 1484 Rocket 3.2 17:43:43 10° SE 17:47:28 43° ENE 17:51:17 10° N
ALOS 4.0 17:46:30 10° E 17:48:07 12° ENE 17:49:44 10° NE
SKYMED 2 4.4 17:44:56 10° NNE 17:48:50 32° E 17:52:43 10° SSE
Cosmos 1844 Rocket 4.1 17:45:06 10° NW 17:50:27 44° WSW 17:55:46 10° S
Meteor 2-10 4.2 17:45:32 10° N 17:50:28 47° ENE 17:55:31 10° SSE
Thor Agena Rocket 3.6 17:47:06 10° NNE 17:52:22 72° ESE 17:57:31 10° S
Cosmos 2084 3.6 17:49:29 10° SW 17:53:19 59° NW 17:57:04 10° NNE
Cosmos 1500 Rocket 3.6 17:51:18 10° S 17:55:39 89° WNW 18:00:02 10° N
SPOT 3 Rocket 3.7 17:51:37 10° SSE 17:56:46 80° WSW 18:01:59 10° NNW
Cosmos 2058 3.2 17:54:48 10° SSE 17:58:43 45° E 18:02:39 10° NNE
Meteor 1-28 Rocket 4.2 17:56:30 10° NE 17:59:40 26° E 18:02:48 10° SSE
Cosmos 1461 3.8 17:57:42 10° S 18:01:24 31° ESE 18:04:38 12° ENE
NOSS 0 Rocket 4.0 17:55:57 10° SSW 18:02:12 90° WNW 18:08:27 10° NNE
Cosmos 371 Rocket 3.7 17:58:48 10° SSW 18:03:34 65° WNW 18:08:23 10° NNE
Sich 1 4.3 18:00:49 10° SE 18:04:13 22° E 18:07:37 10° NE
SMAP 3.9 18:00:10 10° S 18:04:45 57° W 18:09:21 10° NNW
MONITOR-E 4.2 18:07:36 10° SSE 18:10:45 89° WSW 18:13:57 10° NNW
Cosmos 2360 Rocket 4.5 18:08:57 10° W 18:12:40 18° NW 18:16:25 10° N
Cosmos 1633 Rocket 4.2 18:09:32 10° SE 18:13:02 23° E 18:16:32 10° NE
Cosmos 1634 Rocket 4.4 18:10:15 10° NNW 18:16:22 66° W 18:22:27 10° S
Cosmos 1980 3.9 18:11:51 10° SSW 18:17:32 73° WNW 18:23:14 10° NNE
Abrixas 2.3 18:14:48 10° WSW 18:17:44 88° SSE 18:19:25 23° ENE
Cosmos 1356 Rocket 4.0 18:16:02 10° SSE 18:19:35 32° E 18:23:02 11° NNE
IDEFIX/ARIANE 42P 4.3 18:16:50 10° SSW 18:21:39 37° W 18:26:30 10° NNW
ATLAS 5 CENTAUR R/B 4.1 18:18:50 10° N 18:21:43 14° NNE 18:23:47 12° NE
Meteor 1-11 4.2 18:17:01 10° S 18:22:43 83° E 18:28:31 10° NNE
Lacrosse 5 rocket 2.4 18:20:56 10° WNW 18:24:34 44° SW 18:28:21 10° SSE
NOAA 12 4.2 18:20:16 10° SE 18:25:20 53° ENE 18:30:28 10° N
Aureole 2 Rocket 2.9 18:24:15 10° SSW 18:28:01 75° WNW 18:32:09 10° NNE
FREGAT/IRIS 3.4 18:25:21 10° SE 18:28:04 30° ENE 18:30:48 10° N
BREEZE-M DEB (TANK) 2.2 18:30:00 10° SW 18:32:18 49° SSE 18:33:03 34° E
Cosmos 1626 2.2 18:31:18 10° S 18:34:55 51° E 18:38:10 13° NNE
Timation 1 Rocket 4.5 18:29:40 10° NNW 18:35:43 81° WSW 18:41:44 10° SSE
Cosmos 1707 Rocket 3.4 18:31:48 10° N 18:36:08 66° E 18:40:26 10° SSE
Cosmos 2219 Rocket 3.6 18:31:16 10° WSW 18:36:26 36° NW 18:41:37 10° N
COSMO-SKYMED 1 2.7 18:32:37 10° N 18:36:59 79° WNW 18:41:19 10° SSW
Cosmos 540 Rocket 4.3 18:33:06 10° SW 18:38:08 51° WNW 18:43:12 10° NNE
Cosmos 2333 Rocket 3.3 18:33:47 10° SW 18:39:08 43° WNW 18:44:33 10° NNE
Cosmos 773 Rocket 4.4 18:34:35 10° S 18:39:21 38° ESE 18:42:09 22° NE
Cosmos 304 Rocket 3.7 18:35:06 10° SSW 18:39:54 88° ESE 18:44:45 10° NNE
BREEZE M DEB (TANK) 1.8 18:37:38 10° WNW 18:40:11 52° SSW 18:40:58 30° SSE
Cosmos 1943 Rocket 4.1 18:38:32 10° NNE 18:39:28 11° NNE 18:39:28 11° NNE
USA 215 3.2 18:37:34 12° ESE 18:43:44 71° NE 18:50:15 10° NW
Cosmos 2151 4.4 18:42:24 10° SW 18:46:19 37° WNW 18:50:15 10° N
Orbus 7S? 4.4 18:43:19 10° NW 18:47:13 55° NE 18:53:53 16° ESE
Cosmos 2278 Rocket 3.9 18:42:20 10° NW 18:47:26 35° WSW 18:52:30 10° SSW
Cosmos 1666 Rocket 3.4 18:43:44 10° S 18:48:03 67° E 18:52:25 10° NNE
CZ-4C R/B 4.2 18:44:23 10° NNW 18:48:44 18° NNE 18:50:36 16° NE
Cosmos 1455 2.0 18:46:43 10° N 18:50:31 72° E 18:54:18 10° SSE
Resurs 01 Rocket 2.0 18:49:19 23° ESE 18:51:32 39° ENE 18:55:40 10° N
SJ-6B 2.8 18:50:20 10° SSE 18:54:24 78° ENE 18:58:34 10° N
Cosmos 1703 3.5 18:50:41 10° SSW 18:54:32 67° W 18:58:26 10° N
Lacrosse 5 3.6 18:54:16 10° NW 18:57:52 19° N 18:59:06 17° NNE
TIMED 4.4 19:02:50 10° NNW 19:07:13 72° ENE 19:09:11 32° SE
Cosmos 2237 Rocket 3.8 19:08:18 10° WSW 19:13:16 31° NW 19:18:17 10° N
Cosmos 2369 Rocket 3.0 19:11:00 10° N 19:15:09 32° NNE 19:15:09 32° NNE
Lacrosse 4 Rocket 1.1 19:14:18 10° NNW 19:18:23 88° ENE 19:18:28 85° ESE
SL-16 R/B 2.7 19:15:06 10° SW 19:20:39 57° WNW 19:24:59 17° NNE
Cosmos 1470 Rocket 4.4 19:16:43 10° S 19:19:23 35° SSE 19:19:23 35° SSE
CENTAUR R/B 4.5 19:17:08 10° WNW 19:22:09 22° NNW 19:26:54 12° NNE
Cosmos 2242 Rocket 3.6 19:17:59 10° NNW 19:22:25 77° W 19:26:51 10° S
ALOS 2.2 19:20:10 10° SSE 19:24:49 89° WSW 19:29:32 10° NNW
Nadezhda 4 Rocket 4.3 19:18:47 10° SSW 19:25:01 69° W 19:31:22 10° N
Spot 2 Rocket 3.3 19:21:50 10° SSE 19:26:53 86° ENE 19:31:57 10° NNW
USA 229 DEB 3.6 19:20:21 10° SSW 19:27:11 76° ESE 19:29:44 42° NE
USA 229 3.6 19:20:27 10° SSW 19:27:17 75° ESE 19:29:47 42° NE
Cosmos 1184 Rocket 4.0 19:24:32 10° SSW 19:27:42 41° WNW 19:27:43 41° WNW
Cosmos 2026 Rocket 3.9 19:22:55 10° SSE 19:28:55 55° E 19:29:03 55° E
Cosmos 1869 4.0 19:31:54 10° NNW 19:35:51 53° W 19:39:47 10° S
Cosmos 292 Rocket 4.2 19:31:37 10° SSW 19:35:12 51° S 19:35:12 51° S
Iridium 4 Rocket 3.4 19:32:36 10° SSW 19:37:02 63° W 19:38:16 42° NNW
Cosmos 1461 4.4 19:36:53 10° WSW 19:40:31 29° NW 19:41:08 28° NNW
Cosmos 1092 Rocket 4.3 19:40:09 10° SSW 19:46:26 66° W 19:52:46 10° N
FENGYUN 3A 4.1 19:44:52 10° S 19:50:08 58° W 19:55:28 10° NNW
Cosmos 923 Rocket 4.1 19:45:45 10° SSW 19:50:56 73° WNW 19:50:56 73° WNW
Cosmos 1680 Rocket 4.1 19:52:33 10° SSW 19:56:19 49° SSW 19:56:19 49° SSW
ATLAS 5 CENTAUR R/B 3.8 20:02:33 10° NNW 20:05:21 26° N 20:05:21 26° N
BREEZE-M DEB (TANK) 4.4 20:04:54 10° WNW 20:16:12 55° NNW 20:16:12 55° NNW
Cosmos 1943 Rocket 4.3 20:19:51 10° NNW 20:21:00 16° NNW 20:21:00 16° NNW
USA 215 4.4 20:24:57 30° SSW 20:27:01 37° SW 20:33:00 10° WNW
Resurs 01 Rocket 4.0 20:26:51 19° WSW 20:28:07 21° W 20:31:33 10° NW
ATLAS 3B R/B 4.4 20:28:30 10° NNW 20:31:30 21° N 20:31:30 21° N
CZ-4C R/B 4.1 20:32:28 10° NNW 20:35:48 28° N 20:35:48 28° N
Lacrosse 5 4.5 20:37:31 10° NW 20:38:19 14° NNW 20:38:19 14° NNW
Cosmos 2369 Rocket 4.3 20:55:00 10° NW 20:56:59 21° NW 20:56:59 21° NW
